This demonstration page uses our WeatherBlox Daily Observations layout. Learn more.

Left ArrowRight Arrow

38.20091, -84.87328

Hourly Observations for September 10, 2022

Temp ( °F °C ) Dew Point ( °F °C ) Humidity (%) Winds ( mph kmh ) Pressure ( in mb ) Visibility ( mi km ) Precip ( " mm )
12:53 am 00:53 Clear 68 20 65 18.3 90 90 Calm 29.98 1015 10 16 0.00 0.00
1:53 am 01:53 Clear 67 19.4 65 18.3 93 93 Calm 29.99 1016 10 16 0.00 0.00
2:53 am 02:53 Clear 66 18.9 64 17.8 93 93 Calm 29.99 1016 10 16 0.00 0.00
3:53 am 03:53 Clear 66 18.9 64 17.8 93 93 Calm 29.99 1016 10 16 0.00 0.00
4:53 am 04:53 Clear 65 18.3 63 17.2 93 93 Calm 30.00 1016 10 16 0.00 0.00
5:53 am 05:53 Clear 63 17.2 62 16.7 97 97 Calm 30.00 1016 10 16 0.00 0.00
6:53 am 06:53 Clear 64 17.8 62 16.7 93 93 Calm 30.01 1016 10 16 0.00 0.00
7:53 am 07:53 Sunny 65 18.3 63 17.2 93 93 Calm 30.03 1017 10 16 0.00 0.00
8:53 am 08:53 Sunny 69 20.6 64 17.8 84 84 ESE 3 6 30.05 1018 10 16 0.00 0.00
9:53 am 09:53 Sunny 72 22.2 65 18.3 79 79 SE 5 7 30.06 1018 10 16 0.00 0.00
10:53 am 10:53 Sunny 74 23.3 65 18.3 74 74 SSE 5 7 30.08 1019 10 16 0.00 0.00
11:53 am 11:53 Sunny 77 25 66 18.9 69 69 SSE 6 9 30.08 1019 10 16 0.00 0.00
12:53 pm 12:53 Mostly Cloudy 78 25.6 66 18.9 67 67 SSE 5 7 30.08 1019 10 16 0.00 0.00
1:53 pm 13:53 Mostly Cloudy 79 26.1 67 19.4 67 67 VRB 3 6 30.06 1018 10 16 0.00 0.00
2:53 pm 14:53 Partly Cloudy 79 26.1 67 19.4 67 67 SSE 10 17 30.06 1018 10 16 0.00 0.00
3:23 pm 15:23 Cloudy 80 26.7 68 20 67 67 SE 6 9 30.04 1017 10 16 0.00 0.00
3:53 pm 15:53 Mostly Cloudy 82 27.8 68 20 63 63 SSE 6 9 30.04 1017 10 16 0.00 0.00
4:01 pm 16:01 Partly Cloudy 81 27.2 68 20 65 65 VRB 5 7 30.02 1017 10 16 0.00 0.00
4:53 pm 16:53 Mostly Sunny 79 26.1 67 19.4 67 67 SE 7 11 30.03 1017 10 16 0.00 0.00
5:53 pm 17:53 Mostly Sunny 78 25.6 67 19.4 69 69 SSE 9 15 30.03 1017 10 16 0.00 0.00
6:53 pm 18:53 Mostly Sunny 77 25 68 20 74 74 ESE 10 17 30.03 1017 10 16 0.00 0.00
7:53 pm 19:53 Sunny 74 23.3 66 18.9 76 76 ESE 5 7 30.03 1017 10 16 0.00 0.00
8:53 pm 20:53 Clear 73 22.8 66 18.9 79 79 SSE 3 6 30.04 1017 10 16 0.00 0.00
9:43 pm 21:43 Mostly Cloudy 72 22.2 67 19.4 84 84 SE 5 7 30.05 1017 10 16 0.00 0.00
9:53 pm 21:53 Mostly Cloudy 72 22.2 67 19.4 84 84 SE 3 6 30.06 1018 10 16 0.00 0.00
10:16 pm 22:16 Cloudy 72 22.2 67 19.4 84 84 SSE 3 6 30.05 1018 10 16 0.00 0.00
10:42 pm 22:42 Mostly Cloudy 72 22.2 67 19.4 84 84 SSE 3 6 30.05 1018 10 16 0.00 0.00
10:53 pm 22:53 Mostly Cloudy 72 22.2 67 19.4 84 84 SSE 3 6 30.06 1018 10 16 0.00 0.00
11:40 pm 23:40 Mostly Cloudy 72 22.2 67 19.4 84 84 SSE 3 6 30.05 1018 10 16 0.00 0.00
11:53 pm 23:53 Partly Cloudy 72 22.2 67 19.4 84 84 Calm 30.05 1018 10 16 0.00 0.00

Powered by AerisWeather